Home   Weather   Cleburne   Past weeks
Flag for USA

Past Weather in Cleburne, Texas, USA — Yesterday and Last 2 Weeks

Now
70 °F

Sunny.


Feels Like: 70 °F
Forecast: 87 / 70 °F
Wind: 5 mph from Southeast

Location: Burleson-Rendon

Current Time: Jun 26, 2019 at 7:23:55 am

Latest Report: Jun 26, 2019 at 6:46 am


Visibility: 10 mi

Pressure: 30.11 "Hg

Humidity: 88%

Dew Point: 66 °F

Location of CleburneLocation

Past Weather in Cleburne — Graph

°F

Cleburne Temperature Yesterday

Maximum temperature yesterday: 93 °F (at 4:47 pm)
Minimum temperature yesterday: 69 °F (at 6:35 am)
Average temperature yesterday: 78 °F

High & Low Weather Summary for the Past Weeks

 TemperatureHumidityPressure
High99 °F (Jun 19, 2:47 pm)100% (Jun 17, 7:55 am)30.21 "Hg (Jun 17, 7:55 am)
Low55 °F (Jun 13, 6:45 am)25% (Jun 13, 2:53 pm)29.66 "Hg (Jun 19, 9:15 pm)
Average77 °F71%29.92 "Hg
* Reported Jun 11 6:15 am — Jun 26 6:15 am, Cleburne. Weather by CustomWeather, © 2019

Note: Actual official high and low records may vary slightly from our data, if they occured in-between our weather recording intervals... More about our weather records

Advertising

Cleburne Weather History for the Previous 24 Hours

Scroll right to see more
 ConditionsComfort  
Time TempWeatherWind HumidityBarometerVisibility
6:15 am
Wed, Jun 26
68 °FClear.3 mph93%30.10 "Hg10 mi
5:55 am69 °FClear.No wind92%30.09 "Hg10 mi
5:35 am69 °FClear.5 mph92%30.08 "Hg10 mi
5:15 am69 °FClear.5 mph92%30.07 "Hg10 mi
4:55 am69 °FClear.No wind92%30.07 "Hg10 mi
4:35 am69 °FClear.3 mph93%30.05 "Hg10 mi
4:15 am68 °FClear.3 mph93%30.06 "Hg10 mi
3:35 am68 °FClear.3 mph91%30.05 "Hg10 mi
3:15 am68 °FClear.3 mph90%30.05 "Hg7 mi
2:55 am71 °FClear.No wind86%30.04 "Hg10 mi
2:35 am71 °FClear.No wind86%30.04 "Hg10 mi
2:15 am72 °FClear.No wind83%30.04 "Hg10 mi
1:55 am73 °FClear.6 mph79%30.04 "Hg10 mi
1:35 am74 °FClear.6 mph77%30.03 "Hg10 mi
1:15 am74 °FClear.9 mph75%30.04 "Hg10 mi
12:55 am75 °FClear.8 mph75%30.04 "Hg10 mi
12:35 am75 °FClear.9 mph75%30.04 "Hg10 mi
12:15 am76 °FClear.8 mph74%30.05 "Hg10 mi
11:55 pm
Tue, Jun 25
77 °FClear.10 mph73%30.05 "Hg10 mi
11:35 pm77 °FClear.9 mph72%30.06 "Hg10 mi
11:15 pm78 °FClear.8 mph70%30.06 "Hg10 mi
10:55 pm78 °FClear.12 mph71%30.06 "Hg10 mi
10:35 pm80 °FClear.13 mph70%30.04 "Hg10 mi
10:15 pm80 °FClear.13 mph69%30.04 "Hg10 mi
9:55 pm82 °FClear.13 mph66%30.02 "Hg10 mi
9:35 pm83 °FPassing clouds.15 mph65%30.02 "Hg7 mi
9:15 pm83 °FPartly cloudy.14 mph63%30.01 "Hg7 mi
8:35 pm83 °FSunny.7 mph64%29.98 "Hg7 mi
8:15 pm85 °FSunny.7 mph58%29.97 "Hg10 mi
7:55 pm87 °FSunny.10 mph57%29.97 "Hg10 mi
6:47 pm90 °FSunny.8 mph52%29.95 "Hg10 mi
5:45 pm91 °FScattered clouds.12 mph52%29.96 "Hg10 mi
4:47 pm93 °FScattered clouds.9 mph47%29.97 "Hg10 mi
3:52 pm91 °FScattered clouds.12 mph49%29.98 "Hg10 mi
2:51 pm91 °FScattered clouds.8 mph49%29.99 "Hg10 mi
1:51 pm91 °FScattered clouds.8 mph49%29.99 "Hg10 mi
12:55 pm90 °FSunny.10 mph52%30.00 "Hg10 mi
11:50 am88 °FSunny.10 mph55%30.02 "Hg10 mi
10:53 am82 °FSunny.10 mph62%30.02 "Hg10 mi
9:50 am79 °FSunny.5 mph65%29.99 "Hg10 mi
8:51 am73 °FSunny.No wind83%29.98 "Hg10 mi
7:46 am72 °FSunny.5 mph88%29.96 "Hg10 mi
Weather by CustomWeather, © 2019

See weather overview